�N����,����,�~����,�C��,���x,�C��,����,���ϕ���,�ő�u�ԕ���,�ő厞����,���˗�,�I�_���x,�n�����x,�ő啗���N��,DTYPE
"23/10/21","00:10",0.0,13.5,85.1,1006.4,291.3,1.7,2.7,319.1,0.00,11.1,17.8,"00:03:22",1
"23/10/21","00:20",0.0,13.6,85.1,1006.4,310.9,1.6,3.5,339.5,0.00,11.2,17.8,"00:14:34",1
"23/10/21","00:30",0.0,13.5,85.2,1006.4,310.0,1.3,2.2,320.9,0.00,11.1,17.7,"00:23:32",1
"23/10/21","00:40",0.0,13.0,85.7,1006.9,296.1,1.6,2.7,324.6,0.00,10.7,17.6,"00:38:02",1
"23/10/21","00:50",0.0,12.9,86.4,1006.7,298.3,2.1,3.2,265.4,0.00,10.7,17.6,"00:45:38",1
"23/10/21","01:00",0.0,13.1,86.1,1006.9,291.1,2.2,3.2,320.7,0.00,10.9,17.6,"00:58:20",1
"23/10/21","01:10",0.0,13.5,84.8,1006.7,301.1,2.0,3.4,305.5,0.00,11.0,17.9,"01:01:56",1
"23/10/21","01:20",0.0,13.5,83.5,1006.7,290.5,1.7,2.7,304.5,0.00,10.8,17.4,"01:18:02",1
"23/10/21","01:30",0.0,13.4,82.7,1006.7,290.7,1.5,1.9,320.1,0.00,10.6,17.4,"01:20:18",1
"23/10/21","01:40",0.0,13.2,82.6,1006.9,276.6,2.1,2.8,252.7,0.00,10.3,17.7,"01:35:18",1
"23/10/21","01:50",0.0,13.2,82.8,1006.7,284.2,2.2,3.2,314.7,0.00,10.4,17.4,"01:44:02",1
"23/10/21","02:00",0.0,13.1,82.9,1006.9,308.2,2.6,3.6,317.5,0.00,10.3,17.3,"01:56:16",1
"23/10/21","02:10",0.0,13.6,82.2,1006.7,310.8,2.6,4.0,338.9,0.00,10.7,17.3,"02:03:40",1
"23/10/21","02:20",0.0,13.5,82.0,1006.2,293.9,2.3,4.4,321.9,0.00,10.5,17.5,"02:18:12",1
"23/10/21","02:30",0.0,13.3,82.7,1006.7,294.0,2.5,4.5,306.2,0.00,10.5,17.6,"02:26:24",1
"23/10/21","02:40",0.0,13.1,83.6,1006.4,299.9,2.6,4.3,309.2,0.00,10.4,17.3,"02:37:58",1
"23/10/21","02:50",0.0,13.2,84.0,1006.2,287.8,2.7,4.4,312.0,0.00,10.6,17.2,"02:44:20",1
"23/10/21","03:00",0.0,13.3,84.1,1006.2,297.6,2.8,4.7,287.2,0.00,10.7,17.3,"02:58:04",1
"23/10/21","03:10",0.0,13.8,82.9,1006.2,318.0,4.7,8.8,329.2,0.00,11.0,17.3,"03:00:02",1
"23/10/21","03:20",0.0,13.9,81.2,1006.2,319.9,5.6,9.8,324.8,0.00,10.8,17.2,"03:10:42",1
"23/10/21","03:30",0.0,13.7,80.8,1006.4,328.1,4.6,7.3,336.2,0.00,10.5,17.2,"03:25:06",1
"23/10/21","03:40",0.0,13.9,79.4,1006.4,321.5,5.1,8.0,340.4,0.00,10.4,17.0,"03:35:42",1
"23/10/21","03:50",0.0,14.0,78.4,1006.7,316.6,4.7,7.0,323.0,0.00,10.3,17.1,"03:42:34",1
"23/10/21","04:00",0.0,13.8,77.9,1006.4,325.0,3.5,6.5,329.6,0.00,10.1,17.2,"03:55:04",1
"23/10/21","04:10",0.0,13.9,77.3,1006.4,325.5,3.1,6.7,327.4,0.00,10.0,17.4,"04:02:52",1
"23/10/21","04:20",0.0,13.8,77.2,1006.9,320.2,3.6,6.5,327.1,0.00,9.9,16.9,"04:12:26",1
"23/10/21","04:30",0.0,13.5,78.7,1006.7,313.1,3.0,5.0,302.7,0.00,9.9,17.2,"04:27:04",1
"23/10/21","04:40",0.0,13.1,80.5,1006.9,318.5,2.7,4.5,326.0,0.00,9.9,16.8,"04:36:12",1
"23/10/21","04:50",0.0,12.9,82.1,1006.9,313.1,2.7,4.4,305.3,0.00,10.0,17.0,"04:46:08",1
"23/10/21","05:00",0.0,12.7,83.5,1006.7,321.0,2.5,3.6,329.1,0.00,10.0,16.9,"04:54:40",1
"23/10/21","05:10",0.0,12.3,84.7,1006.9,326.6,2.1,3.3,334.7,0.00,9.8,17.0,"05:09:08",1
"23/10/21","05:20",0.0,12.1,85.8,1006.7,322.2,2.2,3.2,332.6,0.00,9.8,16.7,"05:10:42",1
"23/10/21","05:30",0.0,12.0,86.7,1006.9,330.6,1.8,2.8,325.3,0.00,9.9,16.8,"05:21:20",1
"23/10/21","05:40",0.0,11.8,87.4,1006.9,324.4,1.8,4.3,330.6,0.00,9.8,16.9,"05:32:58",1
"23/10/21","05:50",0.0,11.6,88.1,1007.1,326.4,2.0,2.6,335.9,0.00,9.7,16.8,"05:40:40",1
"23/10/21","06:00",0.0,11.4,88.5,1007.1,321.6,1.6,1.9,324.0,0.00,9.6,16.7,"05:54:16",1
"23/10/21","06:10",0.0,11.2,89.2,1006.9,329.2,1.6,2.4,334.0,0.00,9.5,16.7,"06:08:12",1
"23/10/21","06:20",0.0,10.9,89.6,1007.1,318.2,1.8,2.4,332.4,0.00,9.3,16.9,"06:11:52",1
"23/10/21","06:30",0.0,10.5,90.1,1007.6,308.3,1.6,2.2,323.1,0.00,9.0,16.7,"06:20:16",1
"23/10/21","06:40",0.0,10.5,90.7,1007.6,317.8,1.5,2.5,341.2,0.00,9.1,16.6,"06:36:40",1
"23/10/21","06:50",0.0,10.8,91.1,1007.6,298.9,1.3,2.6,319.7,0.00,9.4,16.7,"06:40:56",1
"23/10/21","07:00",0.0,11.3,91.4,1008.1,266.3,0.6,1.1,264.9,0.01,10.0,16.6,"06:54:48",1
"23/10/21","07:10",0.0,12.0,91.6,1008.1,283.9,0.8,1.3,284.5,0.02,10.7,16.6,"07:01:04",1
"23/10/21","07:20",0.0,12.7,91.1,1008.3,296.3,0.8,2.7,51.1,0.04,11.3,16.4,"07:19:34",1
"23/10/21","07:30",0.0,13.3,91.1,1008.8,333.3,0.7,1.9,318.6,0.08,11.9,16.3,"07:26:16",1
"23/10/21","07:40",0.0,14.2,89.4,1008.8,315.8,1.0,2.2,347.1,0.10,12.5,16.6,"07:31:04",1
"23/10/21","07:50",0.0,14.5,86.7,1009.0,292.8,1.2,2.2,309.7,0.09,12.4,16.4,"07:45:20",1
"23/10/21","08:00",0.0,15.3,79.8,1009.0,316.6,1.5,4.0,255.5,0.13,11.9,16.5,"07:56:32",1
"23/10/21","08:10",0.0,15.8,72.2,1009.3,294.6,1.8,5.0,345.6,0.14,10.8,16.5,"08:08:16",1
"23/10/21","08:20",0.0,16.0,69.8,1009.3,269.5,2.0,4.8,235.2,0.16,10.5,16.6,"08:18:48",1
"23/10/21","08:30",0.2,16.0,69.2,1009.3,296.6,2.3,6.0,240.6,0.20,10.4,16.5,"08:24:00",1
"23/10/21","08:40",0.0,16.0,68.7,1009.0,294.5,2.0,5.1,257.8,0.18,10.3,16.4,"08:39:20",1
"23/10/21","08:50",0.0,16.2,66.9,1009.5,313.6,2.6,5.5,353.9,0.26,10.1,16.6,"08:49:36",1
"23/10/21","09:00",0.0,16.0,65.4,1009.0,326.2,2.6,5.6,311.7,0.19,9.6,16.5,"08:50:08",1
"23/10/21","09:10",0.0,16.2,66.4,1008.8,314.3,2.3,5.4,291.1,0.19,10.0,16.7,"09:09:52",1
"23/10/21","09:20",0.0,15.9,66.4,1009.0,309.6,2.1,5.9,332.1,0.12,9.7,16.7,"09:18:24",1
"23/10/21","09:30",0.0,15.3,68.0,1009.0,295.0,2.7,6.0,340.1,0.12,9.5,16.7,"09:20:08",1
"23/10/21","09:40",0.0,15.4,69.1,1009.0,298.9,2.2,4.7,281.4,0.14,9.8,16.7,"09:34:56",1
"23/10/21","09:50",0.0,16.3,70.2,1009.3,272.6,1.7,3.6,243.0,0.27,10.9,16.7,"09:46:48",1
"23/10/21","10:00",0.0,17.1,67.7,1008.8,282.5,2.2,5.4,328.8,0.37,11.1,16.9,"09:51:44",1
"23/10/21","10:10",0.0,16.4,68.1,1009.0,299.8,2.1,4.2,242.4,0.15,10.5,16.8,"10:00:08",1
"23/10/21","10:20",0.0,16.0,70.8,1009.0,292.9,2.0,4.8,332.6,0.18,10.7,16.7,"10:19:36",1
"23/10/21","10:30",0.0,16.7,70.7,1009.3,287.6,2.2,5.4,259.9,0.38,11.4,16.8,"10:27:36",1
"23/10/21","10:40",0.0,17.3,68.4,1008.8,294.1,2.5,5.2,294.4,0.40,11.5,17.0,"10:36:40",1
"23/10/21","10:50",0.0,17.2,66.3,1009.3,313.4,3.1,7.9,351.9,0.36,10.9,17.0,"10:46:00",1
"23/10/21","11:00",0.0,17.1,66.6,1009.3,336.2,3.2,7.7,347.0,0.37,10.9,17.0,"10:55:46",1
"23/10/21","11:10",0.0,17.6,66.3,1009.0,299.6,2.1,4.3,253.9,0.38,11.3,17.1,"11:09:52",1
"23/10/21","11:20",0.0,17.8,64.3,1009.0,282.2,2.5,6.5,294.1,0.47,11.0,17.0,"11:19:12",1
"23/10/21","11:30",0.0,17.6,65.5,1008.6,287.3,2.7,6.6,310.9,0.45,11.1,17.2,"11:27:44",1
"23/10/21","11:40",0.0,18.2,63.9,1008.6,305.0,2.3,6.8,340.4,0.44,11.3,17.2,"11:33:28",1
"23/10/21","11:50",0.0,18.2,61.3,1008.8,314.1,2.3,6.3,337.0,0.39,10.7,17.2,"11:46:32",1
"23/10/21","12:00",0.0,17.3,61.3,1009.0,312.9,3.2,8.1,353.0,0.30,9.8,17.3,"11:50:24",1
"23/10/21","12:10",0.0,17.2,64.3,1008.8,305.1,2.8,6.5,328.0,0.31,10.4,17.4,"12:05:52",1
"23/10/21","12:20",0.0,17.1,64.1,1009.0,294.5,2.3,6.2,267.3,0.18,10.3,17.7,"12:18:48",1
"23/10/21","12:30",0.0,16.8,67.4,1009.0,315.8,2.3,5.8,331.7,0.15,10.8,17.2,"12:25:44",1
"23/10/21","12:40",0.0,17.4,65.9,1008.3,299.1,2.5,5.1,240.7,0.43,11.0,17.5,"12:36:16",1
"23/10/21","12:50",0.0,17.2,64.8,1008.8,327.6,3.9,7.9,333.6,0.40,10.6,17.3,"12:44:56",1
"23/10/21","13:00",0.0,17.5,63.0,1008.3,315.6,3.4,6.5,339.2,0.38,10.4,17.6,"12:54:32",1
"23/10/21","13:10",0.0,17.1,63.1,1008.8,327.9,3.4,6.0,299.1,0.29,10.1,17.7,"13:09:44",1
"23/10/21","13:20",0.0,16.2,64.7,1009.0,334.0,3.6,7.0,313.9,0.09,9.6,17.8,"13:18:00",1
"23/10/21","13:30",0.0,15.6,66.9,1009.0,325.2,3.6,6.6,330.1,0.07,9.5,17.8,"13:23:48",1
"23/10/21","13:40",0.0,15.4,68.8,1009.0,323.0,3.2,7.0,337.9,0.06,9.7,17.7,"13:39:12",1
"23/10/21","13:50",0.0,15.0,71.2,1009.5,324.7,2.8,5.5,346.7,0.06,9.9,17.8,"13:42:28",1
"23/10/21","14:00",0.0,14.9,73.0,1009.5,320.4,2.3,5.1,341.5,0.09,10.1,17.7,"13:52:58",1
"23/10/21","14:10",0.0,15.4,72.9,1009.5,317.6,2.5,5.1,307.1,0.19,10.6,17.7,"14:00:10",1
"23/10/21","14:20",0.0,16.9,71.4,1009.5,292.7,1.6,3.5,301.4,0.31,11.7,17.7,"14:15:04",1
"23/10/21","14:30",0.0,16.0,67.7,1009.5,322.7,3.2,7.3,345.2,0.12,10.1,17.7,"14:22:32",1
"23/10/21","14:40",0.0,15.4,68.5,1010.0,331.0,3.2,7.7,316.6,0.07,9.7,17.6,"14:39:06",1
"23/10/21","14:50",0.0,14.8,70.4,1010.4,334.3,4.0,6.6,334.5,0.05,9.5,17.7,"14:44:24",1
"23/10/21","15:00",0.0,14.3,72.3,1010.4,324.5,4.0,8.2,340.3,0.04,9.4,17.7,"14:52:40",1
"23/10/21","15:10",0.0,14.3,72.1,1010.0,321.6,2.7,5.8,350.4,0.07,9.4,17.9,"15:08:56",1
"23/10/21","15:20",0.0,14.6,70.8,1010.4,303.2,2.2,6.4,331.5,0.06,9.4,18.0,"15:12:52",1
"23/10/21","15:30",0.0,15.2,71.2,1010.4,308.2,1.8,4.8,330.0,0.09,10.1,17.7,"15:29:46",1
"23/10/21","15:40",0.0,15.8,70.0,1010.4,281.2,1.6,3.7,239.7,0.10,10.4,17.7,"15:36:56",1
"23/10/21","15:50",0.0,15.0,67.6,1010.7,316.6,2.8,7.0,340.5,0.03,9.1,17.6,"15:44:24",1
"23/10/21","16:00",0.0,14.6,68.2,1010.7,322.0,3.5,7.0,298.3,0.01,8.8,17.8,"15:56:26",1
"23/10/21","16:10",0.0,14.5,68.6,1010.7,314.1,2.7,6.7,327.0,0.01,8.8,17.5,"16:07:20",1
"23/10/21","16:20",0.0,14.4,68.8,1011.2,318.7,2.6,6.2,330.5,0.00,8.8,17.6,"16:19:08",1
"23/10/21","16:30",0.0,14.5,68.8,1011.2,309.6,2.1,5.9,347.5,0.00,8.9,17.6,"16:23:52",1
"23/10/21","16:40",0.0,14.8,68.8,1011.2,331.1,2.2,5.4,334.7,0.02,9.2,17.6,"16:32:08",1
"23/10/21","16:50",0.0,14.5,69.0,1011.2,303.1,1.7,4.2,284.0,0.00,8.9,17.3,"16:46:20",1
"23/10/21","17:00",0.0,14.2,69.8,1011.4,311.1,2.0,3.9,236.0,0.00,8.8,17.4,"16:58:26",1
"23/10/21","17:10",0.0,14.0,70.6,1011.6,322.3,2.1,4.1,330.0,0.00,8.8,17.5,"17:08:20",1
"23/10/21","17:20",0.0,13.8,71.4,1011.4,300.5,1.2,3.4,343.3,0.00,8.8,17.4,"17:13:56",1
"23/10/21","17:30",0.0,13.4,72.8,1011.6,293.2,1.2,2.0,258.4,0.00,8.7,17.5,"17:22:36",1
"23/10/21","17:40",0.0,13.1,73.8,1012.1,339.0,1.2,2.0,338.8,0.00,8.6,17.2,"17:39:36",1
"23/10/21","17:50",0.0,13.0,74.5,1012.6,320.0,1.8,3.3,343.0,0.00,8.6,17.4,"17:42:32",1
"23/10/21","18:00",0.0,13.2,75.3,1012.6,334.0,1.3,2.9,341.2,0.00,9.0,17.2,"17:53:28",1
"23/10/21","18:10",0.0,12.8,76.1,1012.6,331.3,1.6,2.9,336.6,0.00,8.7,17.4,"18:03:34",1
"23/10/21","18:20",0.0,12.2,76.8,1012.8,308.5,1.5,2.0,319.2,0.00,8.3,17.3,"18:16:46",1
"23/10/21","18:30",0.0,11.6,77.8,1012.8,307.0,1.0,1.7,283.7,0.00,7.9,17.2,"18:20:08",1
"23/10/21","18:40",0.0,11.4,79.8,1013.0,305.5,1.5,3.1,337.7,0.00,8.1,17.1,"18:32:32",1
"23/10/21","18:50",0.0,11.3,81.2,1012.8,318.2,1.7,2.2,323.6,0.00,8.2,17.1,"18:40:48",1
"23/10/21","19:00",0.0,11.3,82.5,1013.5,316.0,1.6,2.7,335.0,0.00,8.5,17.0,"18:54:10",1
"23/10/21","19:10",0.0,11.9,81.6,1013.3,320.9,2.8,6.0,325.3,0.00,8.9,16.9,"19:05:22",1
"23/10/21","19:20",0.0,12.1,79.7,1013.3,306.8,3.0,4.5,312.2,0.00,8.7,16.8,"19:11:12",1
"23/10/21","19:30",0.0,11.8,79.0,1013.3,305.9,2.3,3.5,299.6,0.00,8.3,17.0,"19:28:30",1
"23/10/21","19:40",0.0,12.0,77.8,1013.5,290.3,2.1,4.2,343.5,0.00,8.3,16.9,"19:31:24",1
"23/10/21","19:50",0.0,11.8,78.1,1013.5,282.2,1.7,2.7,273.6,0.00,8.2,16.8,"19:48:56",1
"23/10/21","20:00",0.0,11.6,78.7,1013.5,300.9,1.7,2.5,323.5,0.00,8.1,16.8,"19:50:10",1
"23/10/21","20:10",0.0,11.5,79.7,1013.8,306.8,1.5,2.9,325.1,0.00,8.2,16.6,"20:05:26",1
"23/10/21","20:20",0.0,11.2,80.5,1014.2,293.0,1.3,3.6,339.7,0.00,8.0,16.7,"20:19:58",1
"23/10/21","20:30",0.0,11.8,80.8,1014.2,295.2,2.2,4.5,313.6,0.00,8.7,16.8,"20:22:08",1
"23/10/21","20:40",0.0,11.9,80.8,1014.5,307.3,1.3,2.2,317.2,0.00,8.8,16.7,"20:36:32",1
"23/10/21","20:50",0.0,11.9,81.2,1015.2,316.5,1.3,2.2,334.2,0.00,8.8,16.5,"20:42:14",1
"23/10/21","21:00",0.0,11.6,82.1,1014.9,298.6,1.5,2.9,313.0,0.00,8.7,16.8,"20:59:16",1
"23/10/21","21:10",0.0,11.5,83.2,1015.2,290.7,1.3,2.2,311.4,0.00,8.8,16.5,"21:03:10",1
"23/10/21","21:20",0.0,11.5,83.9,1014.7,307.5,1.6,3.3,325.8,0.00,8.9,16.7,"21:16:46",1
"23/10/21","21:30",0.0,11.3,84.4,1014.5,323.8,1.0,2.1,321.7,0.00,8.8,16.4,"21:21:22",1
"23/10/21","21:40",0.0,10.9,85.1,1014.2,310.2,1.6,2.4,327.9,0.00,8.5,16.7,"21:37:20",1
"23/10/21","21:50",0.0,10.4,86.1,1014.7,306.7,1.6,2.8,311.4,0.00,8.2,16.7,"21:42:16",1
"23/10/21","22:00",0.0,10.0,87.2,1014.7,325.0,1.1,2.1,345.3,0.00,8.0,16.6,"21:57:20",1
"23/10/21","22:10",0.0,9.6,88.0,1014.9,310.4,1.7,3.1,321.8,0.00,7.8,16.6,"22:01:20",1
"23/10/21","22:20",0.0,9.5,89.1,1014.9,322.2,1.3,2.2,319.3,0.00,7.8,16.5,"22:12:32",1
"23/10/21","22:30",0.0,9.2,89.7,1015.4,309.7,1.8,2.8,326.6,0.00,7.6,16.4,"22:24:00",1
"23/10/21","22:40",0.0,9.2,90.5,1015.2,310.5,1.3,2.4,328.5,0.00,7.8,16.3,"22:31:52",1
"23/10/21","22:50",0.0,9.7,91.0,1015.2,298.1,1.7,2.5,314.1,0.00,8.3,16.3,"22:41:20",1
"23/10/21","23:00",0.0,9.8,91.3,1014.7,310.1,1.5,2.2,328.6,0.00,8.5,16.2,"22:53:28",1
"23/10/21","23:10",0.0,9.6,91.6,1014.7,311.2,1.2,1.8,319.9,0.00,8.3,16.3,"23:09:44",1
"23/10/21","23:20",0.0,9.4,92.2,1014.9,302.4,2.1,2.7,307.7,0.00,8.2,16.2,"23:19:28",1
"23/10/21","23:30",0.0,9.4,92.6,1014.9,317.3,2.2,2.9,320.6,0.00,8.3,16.3,"23:24:08",1
"23/10/21","23:40",0.0,9.5,92.9,1014.9,312.9,1.8,2.6,321.9,0.00,8.4,16.2,"23:33:12",1
"23/10/21","23:50",0.0,9.4,93.3,1014.9,320.5,1.6,2.5,321.3,0.00,8.4,16.0,"23:41:44",1
"23/10/21","24:00",0.0,9.3,93.5,1014.9,317.5,2.2,3.1,314.2,0.00,8.3,16.2,"23:50:02",1
